Humidity-temperature Sensor

Selected Measurement Type: Air Temperature

 
Air Temperature [°C]     6 entries per hour
Showing data from 3/2/2022 (00:00:00 Z) to 2/23/2022 (00:01:00 Z)
Previous Next [ Day | 3-Days | 7-Days ]
First Last
Prev [ Day | 3-Days | 7-Days ] Next
First Last

Start Time:     :
End Time:     :     
Time (in GMT) :00 :50 :40 :30 :20 :10
Previous Next [ Day | 3-Days | 7-Days ]
First Last
Prev [ Day | 3-Days | 7-Days ] Next
First Last


123 => good data
MM => data is determined as missing
-- => data not received/configured
Back to Top Back to Top
3/2/2022 00:00 to 23:10 25.03 24.96 25.01 25.03 24.94 24.97
3/1/2022 23:00 to 22:10 24.92 24.87 25.03 24.91 24.78 24.75
3/1/2022 22:00 to 21:10 24.71 24.45 24.31 24.28 24.12 24.83
3/1/2022 21:00 to 20:10 24.65 24.81 24.86 24.94 24.83 24.80
3/1/2022 20:00 to 19:10 24.90 24.75 24.44 24.10 23.70 23.37
3/1/2022 19:00 to 18:10 23.45 23.53 23.80 23.81 24.72 25.08
3/1/2022 18:00 to 17:10 25.05 25.19 25.10 25.15 25.02 25.10
3/1/2022 17:00 to 16:10 25.21 25.11 25.13 25.13 24.99 25.08
3/1/2022 16:00 to 15:10 25.02 24.89 24.97 24.89 24.83 24.65
3/1/2022 15:00 to 14:10 24.62 24.58 24.53 24.45 24.23 24.27
3/1/2022 14:00 to 13:10 24.32 24.45 24.52 24.53 24.52 24.51
3/1/2022 13:00 to 12:10 24.54 24.50 24.59 24.47 24.52 24.42
3/1/2022 12:00 to 11:10 24.49 24.43 24.45 24.39 24.58 24.49
3/1/2022 11:00 to 10:10 24.52 24.60 24.63 24.62 24.74 24.59
3/1/2022 10:00 to 9:10 24.76 24.67 24.79 24.70 24.76 24.69
3/1/2022 09:00 to 8:10 24.64 24.87 24.86 24.89 24.82 24.98
3/1/2022 08:00 to 7:10 24.86 24.81 24.95 24.96 25.05 24.90
3/1/2022 07:00 to 6:10 24.91 25.03 25.01 25.03 25.04 25.08
3/1/2022 06:00 to 5:10 25.12 25.09 25.16 25.16 25.11 25.15
3/1/2022 05:00 to 4:10 25.18 25.18 25.16 25.13 25.12 25.12
3/1/2022 04:00 to 3:10 25.16 25.15 25.23 25.16 25.20 25.10
3/1/2022 03:00 to 2:10 25.29 25.17 25.13 25.20 25.28 25.27
3/1/2022 02:00 to 1:10 25.26 25.26 25.35 25.19 25.37 25.37
3/1/2022 01:00 to 0:10 25.33 25.29 25.34 25.34 25.33 25.41
3/1/2022 00:00 to 23:10 25.37 25.34 25.35 25.31 25.42 25.32
2/28/2022 23:00 to 22:10 25.32 25.36 25.35 25.42 25.42 25.45
2/28/2022 22:00 to 21:10 25.49 25.43 25.45 25.36 25.22 25.25
2/28/2022 21:00 to 20:10 25.35 25.32 25.19 25.21 25.34 25.33
2/28/2022 20:00 to 19:10 25.31 25.38 25.23 25.32 25.28 25.37
2/28/2022 19:00 to 18:10 25.27 25.41 25.44 25.43 25.32 25.34
2/28/2022 18:00 to 17:10 25.37 25.39 25.55 25.53 25.48 25.64
2/28/2022 17:00 to 16:10 25.65 25.35 25.38 25.43 25.31 25.33
2/28/2022 16:00 to 15:10 25.40 25.38 25.46 25.32 25.26 25.32
2/28/2022 15:00 to 14:10 25.32 25.11 25.20 25.13 25.23 25.15
2/28/2022 14:00 to 13:10 25.20 25.07 25.07 25.10 25.08 25.16
2/28/2022 13:00 to 12:10 25.09 25.06 25.09 25.04 25.08 25.06
2/28/2022 12:00 to 11:10 24.99 25.06 25.12 25.14 25.22 25.15
2/28/2022 11:00 to 10:10 25.20 25.16 25.12 25.27 25.16 25.23
2/28/2022 10:00 to 9:10 25.17 25.25 25.21 25.26 25.29 25.40
2/28/2022 09:00 to 8:10 25.37 25.33 25.30 25.42 25.39 25.46
2/28/2022 08:00 to 7:10 25.39 25.53 25.35 25.38 25.49 25.61
2/28/2022 07:00 to 6:10 25.54 25.52 25.62 25.51 25.66 25.63
2/28/2022 06:00 to 5:10 25.55 25.47 25.62 25.62 25.49 25.61
2/28/2022 05:00 to 4:10 25.59 25.47 25.48 25.00 24.46 24.19
2/28/2022 04:00 to 3:10 25.30 25.20 25.09 25.04 25.01 24.98
2/28/2022 03:00 to 2:10 24.73 24.86 25.62 25.41 25.49 25.49
2/28/2022 02:00 to 1:10 25.61 25.60 25.50 25.57 25.68 25.56
2/28/2022 01:00 to 0:10 25.47 25.43 25.38 25.07 25.08 25.43
2/28/2022 00:00 to 23:10 25.62 25.57 25.42 25.49 25.62 25.50
2/27/2022 23:00 to 22:10 25.48 25.53 25.54 25.47 25.51 25.51
2/27/2022 22:00 to 21:10 25.66 25.66 25.59 25.50 25.58 25.55
2/27/2022 21:00 to 20:10 25.58 25.42 25.51 25.58 25.56 25.59
2/27/2022 20:00 to 19:10 25.51 25.55 25.46 25.54 25.50 25.73
2/27/2022 19:00 to 18:10 25.53 25.49 25.51 25.60 25.64 25.64
2/27/2022 18:00 to 17:10 25.66 25.67 25.72 25.56 25.65 25.75
2/27/2022 17:00 to 16:10 25.49 25.27 25.09 25.06 24.77 24.45
2/27/2022 16:00 to 15:10 24.12 23.67 23.99 24.07 25.33 25.27
2/27/2022 15:00 to 14:10 25.41 25.34 25.24 25.28 25.33 25.46
2/27/2022 14:00 to 13:10 25.43 25.33 25.28 25.21 25.41 25.16
2/27/2022 13:00 to 12:10 25.22 25.33 25.22 25.37 25.25 25.20
2/27/2022 12:00 to 11:10 25.31 25.29 25.38 25.25 25.45 25.38
2/27/2022 11:00 to 10:10 25.38 25.37 25.27 25.41 25.31 25.38
2/27/2022 10:00 to 9:10 25.37 25.44 25.47 25.49 25.50 25.54
2/27/2022 09:00 to 8:10 25.35 25.54 25.53 25.53 25.50 25.39
2/27/2022 08:00 to 7:10 25.41 25.30 25.22 25.17 25.10 25.01
2/27/2022 07:00 to 6:10 25.06 25.26 25.29 25.26 25.28 25.30
2/27/2022 06:00 to 5:10 25.06 25.04 24.94 24.73 24.61 24.48
2/27/2022 05:00 to 4:10 24.60 24.66 25.10 25.24 25.16 25.03
2/27/2022 04:00 to 3:10 25.17 24.91 25.07 24.79 24.58 24.81
2/27/2022 03:00 to 2:10 25.43 25.35 25.20 25.19 25.12 25.02
2/27/2022 02:00 to 1:10 25.06 24.86 24.57 24.53 24.08 24.01
2/27/2022 01:00 to 0:10 24.68 25.79 25.66 25.60 25.58 25.62
2/27/2022 00:00 to 23:10 25.70 25.82 25.84 25.86 25.72 25.70
2/26/2022 23:00 to 22:10 25.66 25.67 25.72 25.74 25.78 25.69
2/26/2022 22:00 to 21:10 25.75 25.67 25.68 25.69 25.78 25.65
2/26/2022 21:00 to 20:10 25.73 25.73 25.72 25.63 25.90 25.78
2/26/2022 20:00 to 19:10 25.78 25.78 25.72 25.78 25.78 25.76
2/26/2022 19:00 to 18:10 25.76 25.80 25.71 25.64 25.69 25.91
2/26/2022 18:00 to 17:10 25.73 25.77 25.75 25.80 25.89 25.72
2/26/2022 17:00 to 16:10 25.78 26.02 25.78 25.82 25.85 25.76
2/26/2022 16:00 to 15:10 25.76 25.71 25.54 25.45 25.45 25.50
2/26/2022 15:00 to 14:10 25.44 25.32 25.50 25.49 25.52 25.39
2/26/2022 14:00 to 13:10 25.41 25.47 25.31 25.34 25.26 25.27
2/26/2022 13:00 to 12:10 25.06 25.30 25.34 25.27 25.25 25.24
2/26/2022 12:00 to 11:10 25.28 25.52 25.35 25.36 25.25 25.34
2/26/2022 11:00 to 10:10 25.32 25.30 25.34 25.32 25.30 25.29
2/26/2022 10:00 to 9:10 25.31 25.31 25.29 25.38 25.41 25.42
2/26/2022 09:00 to 8:10 25.31 25.45 25.51 25.41 25.56 25.52
2/26/2022 08:00 to 7:10 25.66 25.58 25.55 25.51 25.60 25.59
2/26/2022 07:00 to 6:10 25.64 25.69 25.65 25.55 25.63 25.67
2/26/2022 06:00 to 5:10 25.66 25.70 25.65 25.69 25.57 25.68
2/26/2022 05:00 to 4:10 25.54 25.67 25.64 25.62 25.56 25.54
2/26/2022 04:00 to 3:10 25.55 25.56 25.58 25.53 25.48 25.52
2/26/2022 03:00 to 2:10 25.79 25.59 25.49 25.55 25.55 25.57
2/26/2022 02:00 to 1:10 25.63 25.68 25.60 25.57 25.69 25.59
2/26/2022 01:00 to 0:10 25.57 25.85 25.54 25.68 25.66 25.65
2/26/2022 00:00 to 23:10 25.60 25.73 25.57 25.68 25.63 25.63
2/25/2022 23:00 to 22:10 25.55 25.53 25.66 25.53 25.57 25.65
2/25/2022 22:00 to 21:10 25.52 25.43 25.55 25.48 25.45 25.62
2/25/2022 21:00 to 20:10 25.57 25.47 25.54 25.52 25.61 25.67
2/25/2022 20:00 to 19:10 25.62 25.52 25.59 25.58 25.58 25.65
2/25/2022 19:00 to 18:10 25.61 25.61 25.58 25.57 25.69 25.75
2/25/2022 18:00 to 17:10 25.57 25.61 25.65 25.74 25.67 25.73
2/25/2022 17:00 to 16:10 25.78 25.66 25.71 25.73 25.62 25.69
2/25/2022 16:00 to 15:10 25.60 25.72 25.49 25.59 25.60 25.26
2/25/2022 15:00 to 14:10 25.30 25.31 25.25 25.26 25.26 25.22
2/25/2022 14:00 to 13:10 25.20 25.21 25.36 25.39 25.33 25.23
2/25/2022 13:00 to 12:10 25.19 25.17 25.36 25.51 25.46 25.27
2/25/2022 12:00 to 11:10 25.45 25.30 25.27 25.30 25.32 25.28
2/25/2022 11:00 to 10:10 25.31 25.51 25.43 25.37 25.31 25.27
2/25/2022 10:00 to 9:10 25.36 25.39 25.35 25.31 25.31 25.16
2/25/2022 09:00 to 8:10 25.24 25.36 25.38 25.48 25.50 25.56
2/25/2022 08:00 to 7:10 25.57 25.56 25.56 25.54 25.67 25.51
2/25/2022 07:00 to 6:10 25.57 25.55 25.75 25.56 25.57 25.51
2/25/2022 06:00 to 5:10 25.64 25.53 25.69 25.60 25.65 25.58
2/25/2022 05:00 to 4:10 25.67 25.53 25.64 25.52 25.56 25.63
2/25/2022 04:00 to 3:10 25.55 25.72 25.64 25.45 25.51 25.65
2/25/2022 03:00 to 2:10 25.49 25.69 25.46 25.47 25.44 25.50
2/25/2022 02:00 to 1:10 25.56 25.42 25.55 25.41 25.48 25.49
2/25/2022 01:00 to 0:10 25.56 25.51 25.44 25.63 25.31 25.34
2/25/2022 00:00 to 23:10 25.46 25.55 25.50 25.24 25.50 25.43
2/24/2022 23:00 to 22:10 25.56 25.70 25.38 25.55 25.45 25.53
2/24/2022 22:00 to 21:10 25.54 25.49 25.47 25.58 25.45 25.64
2/24/2022 21:00 to 20:10 25.53 25.54 25.46 25.61 25.58 25.68
2/24/2022 20:00 to 19:10 25.71 25.60 25.55 25.55 25.65 25.72
2/24/2022 19:00 to 18:10 25.71 25.71 25.62 25.66 25.65 25.57
2/24/2022 18:00 to 17:10 25.52 25.60 25.53 25.53 25.54 25.62
2/24/2022 17:00 to 16:10 25.54 25.38 25.44 25.39 25.70 25.72
2/24/2022 16:00 to 15:10 25.69 25.56 25.51 25.36 25.31 25.19
2/24/2022 15:00 to 14:10 25.23 25.08 25.22 25.11 25.11 25.25
2/24/2022 14:00 to 13:10 25.18 25.31 25.15 25.07 25.10 25.22
2/24/2022 13:00 to 12:10 25.22 25.16 25.05 25.10 25.02 24.99
2/24/2022 12:00 to 11:10 25.08 25.16 25.00 25.15 25.04 25.07
2/24/2022 11:00 to 10:10 25.18 25.16 25.12 25.11 25.19 25.06
2/24/2022 10:00 to 9:10 25.12 25.04 25.06 25.10 25.06 25.31
2/24/2022 09:00 to 8:10 25.13 25.08 24.98 25.12 25.09 25.06
2/24/2022 08:00 to 7:10 25.21 25.18 25.15 25.12 25.25 25.05
2/24/2022 07:00 to 6:10 25.20 25.15 25.06 25.14 25.11 25.11
2/24/2022 06:00 to 5:10 25.11 25.14 25.15 25.24 25.28 25.25
2/24/2022 05:00 to 4:10 25.23 25.20 25.20 25.27 25.33 25.34
2/24/2022 04:00 to 3:10 25.40 25.48 25.30 25.28 25.36 25.29
2/24/2022 03:00 to 2:10 25.29 25.37 25.44 25.36 25.44 25.41
2/24/2022 02:00 to 1:10 25.45 25.38 25.45 25.40 25.50 25.52
2/24/2022 01:00 to 0:10 25.39 25.26 25.34 25.60 25.27 25.52
2/24/2022 00:00 to 23:10 25.48 25.31 25.41 25.38 25.32 25.38
2/23/2022 23:00 to 22:10 25.40 25.47 25.40 25.44 25.41 25.50
2/23/2022 22:00 to 21:10 25.43 25.46 25.45 25.51 25.52 25.51
2/23/2022 21:00 to 20:10 25.56 25.62 25.47 25.59 25.60 25.58
2/23/2022 20:00 to 19:10 25.78 25.58 25.69 25.75 25.82 25.84
2/23/2022 19:00 to 18:10 25.92 25.82 26.03 25.93 25.95 25.90
2/23/2022 18:00 to 17:10 25.94 25.85 25.94 25.81 25.81 25.64
2/23/2022 17:00 to 16:10 25.74 25.59 25.55 25.95 25.94 25.96
2/23/2022 16:00 to 15:10 25.74 25.50 25.53 25.69 25.38 25.27
2/23/2022 15:00 to 14:10 25.38 25.45 25.66 25.66 25.47 25.44
2/23/2022 14:00 to 13:10 25.48 25.39 25.21 25.23 25.24 25.25
2/23/2022 13:00 to 12:10 25.31 25.10 25.19 25.11 25.19 24.94
2/23/2022 12:00 to 11:10 25.04 25.12 25.11 25.12 25.06 25.28
2/23/2022 11:00 to 10:10 25.38 25.35 25.51 25.54 25.56 25.37
2/23/2022 10:00 to 9:10 25.28 25.28 25.45 25.32 25.33 25.25
2/23/2022 09:00 to 8:10 25.33 25.34 25.22 25.17 25.04 25.01
2/23/2022 08:00 to 7:10 25.02 25.14 25.06 25.09 25.07 25.29
2/23/2022 07:00 to 6:10 25.29 25.29 25.17 25.28 25.38 25.37
2/23/2022 06:00 to 5:10 25.29 25.34 25.29 25.43 25.53 25.35
2/23/2022 05:00 to 4:10 25.38 25.31 25.47 25.38 25.43 25.36
2/23/2022 04:00 to 3:10 25.39 25.39 25.44 25.48 25.43 25.55
2/23/2022 03:00 to 2:10 25.42 25.50 25.43 25.47 25.47 25.48
2/23/2022 02:00 to 1:10 25.46 25.59 25.56 25.59 25.62 25.55
2/23/2022 01:00 to 0:10 25.58 25.61 25.59 25.48 25.53 25.62